Location: Ash Shall?l al Awwal
(24.0167°N, 32.8667°E)
Time: 04:00:05
(UTC+00:00)

Cosmos 968 Rocket - Pass Details

Date: 02 March 2021
Orbit: 740 x 771 km, 74.0° (Epoch: 12 April)

Event Time Altitude Azimuth Distance (km) Brightness Sun altitude
Rises 16:55:13 0° 349° (N) 3,241 6.9 -15.3°
Reaches altitude 10° 16:57:38 10° 353° (N) 2,313 6.1 -15.8°
Maximum altitude 17:02:51 65° 75° (ENE) 845 3.4 -17.0°
Drops below altitude 10° 17:08:02 10° 156° (SSE) 2,301 5.7 -18.2°
Sets 17:10:25 0° 159° (SSE) 3,222 6.5 -18.7°
